Location: �bnet
(46.9957°N, 8.4908°E)
Time: 14:16:08
(UTC+00:00)

USA 308 - Pass Details

Date: 11 May 2021
Orbit: 568 x 576 km, 54.0° (Epoch: 10 May)

Event Time Altitude Azimuth Distance (km) Brightness Sun altitude
Rises 19:41:30 0° 298° (WNW) 2,783 8.5 -8.2°
Reaches altitude 10° 19:43:51 10° 305° (NW) 1,885 7.3 -8.5°
Maximum altitude 19:47:56 42° 17° (NNE) 827 3.9 -9.1°
Drops below altitude 10° 19:52:02 10° 90° (E) 1,883 5.1 -9.6°
Enters shadow 19:52:38 - 92° (E) 2,113 5.3 -9.7°
